Location: Krasnoyarskiy
(51.1133°N, 71.6497°E)
Time: 22:58:39
(UTC+00:00)

Cosmos 1420 Rocket - Pass Details

Date: 27 September 2022
Orbit: 753 x 781 km, 74.0° (Epoch: 03 December)

Event Time Altitude Azimuth Distance (km) Brightness Sun altitude
Rises 00:04:57 0° 205° (SSW) 3,226 6.9 -10.5°
Reaches altitude 10° 00:07:20 10° 206° (SSW) 2,299 6.1 -10.1°
Maximum altitude 00:12:33 83° 295° (WNW) 775 4.0 -9.3°
Drops below altitude 10° 00:17:47 10° 23° (NNE) 2,299 6.9 -8.5°
Sets 00:20:10 0° 25° (NNE) 3,225 7.7 -8.2°
